Regional Weather Roundup
Issued by NWS Jackson, KY

Home | Current Version | Previous Version | Text Only | Print | Product List | Glossary Off
Versions: 1 2 3 4 5 6 7 8 9 10 11 12 13 14 15 16 17 18 19 20 21 22 23 24 25 26 27 28 29 30 31 32 33 34 35 36 37 38 39 40 41 42 43 44 45 46 47 48 49 50

476
ASUS43 KJKL 170310
RWRJKL

EAST KENTUCKY HOURLY WEATHER ROUNDUP
NATIONAL WEATHER SERVICE JACKSON KY
1000 PM EST MON JAN 16 2017

NOTE: "FAIR" INDICATES FEW OR NO CLOUDS BELOW 12,000 FEET WITH
NO SIGNIFICANT WEATHER AND/OR OBSTRUCTIONS TO VISIBILITY.

* THESE REPORTS ARE NOT UNDER NWS QUALITY CONTROL AND MAY NOT
  REPORT WEATHER SUCH AS PRECIPITATION AND FOG.

KYZ079-080-083-085-087-088-110-112-115-119-120-170400
...EASTERN KENTUCKY...

CITY           SKY/WX    TMP DP  RH WIND       PRES   REMARKS
JACKSON        CLOUDY    60  50  69 VRB3      30.14F
LONDON         CLOUDY    59  50  72 S8        30.15F
SOMERSET*      MOCLDY    59  52  77 S6        30.13F
MONTICELLO*    CLOUDY    61  53  75 SE8       30.14F
WILLIAMSBURG*  CLOUDY    57  54  88 SE7       30.15F
MIDDLESBORO*   MOCLDY    50  50 100 CALM      30.20S
HARLAN APT*    CLOUDY    59  48  67 CALM      30.18F
PIKE CO APT*     N/A     59  51  72 SE5       30.16F
MOREHEAD APT*  CLOUDY    55  52  88 E6        30.14F
ASHLAND*       CLOUDY    46  45  93 SE3       30.14F
$$

KYZ035-036-041-042-044-050-067-078-099-170400
...CENTRAL KENTUCKY...

CITY           SKY/WX    TMP DP  RH WIND       PRES   REMARKS
MT STERLING*   CLOUDY    55  52  88 S5        30.13F
FLEMING/MASON* CLOUDY    53  52  99 SE9       30.11F
DANVILLE*      CLOUDY    59  52  77 S8        30.10F
LEXINGTON      CLOUDY    58  52  80 SE9       30.09F
FRANKFORT      CLOUDY    58  52  80 S7        30.06F
LOUISVILLE     CLOUDY    55  51  86 SE8       30.02F
LEBANON*         N/A     59  54  82 S8        30.08S
GLASGOW*       CLOUDY    62  51  68 S7        30.06F
BOWLING GREEN  MOCLDY    65  51  60 S10       30.05F
$$

KYZ091>093-OHZ055-061-077-WVZ005-015-034-035-042-170400
...SOUTHERN OHIO/WEST VIRGINIA...

CITY           SKY/WX    TMP DP  RH WIND       PRES   REMARKS
COVINGTON      CLOUDY    51  51 100 SE8       30.06F FOG
COLUMBUS       LGT RAIN  45  44  97 E6        30.14F FOG
DAYTON         FOG       47  47 100 SE10      30.08F VSB 1
WILMINGTON     LGT RAIN  47  47 100 E7        30.10F FOG
HUNTINGTON     LGT RAIN  50  48  93 N3        30.15F FOG
CHARLESTON     CLOUDY    51  49  92 CALM      30.17F
PINEVILLE*     CLOUDY    52  48  87 MISG      30.25F FOG
BECKLEY        CLOUDY    50  47  89 S9        30.23F
BLUEFIELD      CLOUDY    53  44  71 S5        30.25S
LOGAN CO APT*  CLOUDY    57  50  77 CALM      30.18F
$$

VAZ002-007-008-TNZ017-027-036-066-071-170400
...SOUTHWEST VIRGINIA/EAST TENNESSEE...

CITY           SKY/WX    TMP DP  RH WIND       PRES   REMARKS
WISE*          CLOUDY    55  45  67 S7        30.23F
JONESVILLE*      N/A     50  50 100 CALM      30.21F
ABINGDON*      CLOUDY    56  51  83 E6        30.24S
BRISTOL        MOCLDY    55  49  80 CALM      30.21F
MORRISTOWN*    MOCLDY    55  55 100 CALM      30.19F FOG
SEVIERVILLE*     N/A     52  50  93 CALM      30.19F VSB 1
KNOXVILLE      MOCLDY    56  54  93 CALM      30.18F
LAFOLLETTE*    MOCLDY    52  52 100 CALM      30.21F
CROSSVILLE     CLOUDY    58  52  80 VRB7G17   30.18S
NASHVILLE      RAIN      62  55  77 S9        30.09S
$$

...KEY TO REMARKS...
VSB - VISIBILITY IN MILES
WCI - WIND CHILL INDEX
HX  - HEAT INDEX

$$




USA.gov is the U.S. government's official web portal to all federal, state and local government web resources and services.